Ogden Hill AFB, UT

8:27 AM MDT on April 30, 2017 (GMT -0600)
Hill Air Force Base

Weather History for KHIF - January, 2013

Change the Weather History Date:

Wednesday, January 9, 2013

  Actual Average Record
Temperature  
Mean Temperature 28 °F -  
Max Temperature 38 °F 34 °F 50 °F (2005)
Min Temperature 19 °F 22 °F 12 °F (2011)
Degree Days  
Heating Degree Days 36    
Moisture  
Dew Point 21 °F    
Average Humidity 75    
Maximum Humidity 93    
Minimum Humidity 59    
Precipitation  
Precipitation 0.00 in - - ()
Sea Level Pressure  
Sea Level Pressure 30.21 in    
Wind  
Wind Speed 6 mph (SE)    
Max Wind Speed 16 mph    
Max Gust Speed 22 mph    
Visibility 8 miles    
Events      
Averages and records for this station are not official NWS values.
T = Trace of Precipitation, MM = Missing Value Source: NWS Daily Summary

Daily Weather History Graph

Daily Weather History Graph

Search for Another Location

Airport or City:

Trip Planner

Search our weather history database for the weather conditions in past years. The results will help you decide how hot, cold, wet, or windy it might be!

Date:

Astronomy

Jan. 09, 2013 Rise Set
Actual Time 7:52 AM MST 5:17 PM MST
Civil Twilight 7:22 AM MST 5:48 PM MST
Nautical Twilight 6:47 AM MST 6:22 PM MST
Astronomical Twilight 6:14 AM MST 6:56 PM MST
Moon 5:35 AM MST (1/9) 3:23 PM MST (1/9)
Length of Visible Light 10h 26m
Length of Day
9h 25m
Waning Crescent, 6% of the Moon is Illuminated
Jan 9
Waning Crescent
Jan 11
New
Jan 18
First Quarter
Jan 26
Full
Feb 3
Last Quarter

Hourly Weather History & Observations

Time (MST) Temp. Windchill Dew Point Humidity Pressure Visibility Wind Dir Wind Speed Gust Speed Precip Events Conditions
12:58 AM 28.8 °F - 21.7 °F 75% 30.44 in 7.0 mi SW 1.2 mph - N/A   Overcast
1:58 AM 26.8 °F 21.4 °F 21.9 °F 82% 30.45 in 7.0 mi NE 4.6 mph - N/A   Overcast
2:58 AM 29.1 °F - 21.4 °F 73% 30.45 in 7.0 mi SW 2.3 mph - N/A   Overcast
3:58 AM 26.6 °F 19.1 °F 19.4 °F 74% 30.43 in 7.0 mi SSE 6.9 mph - N/A   Scattered Clouds
4:23 AM 21.2 °F 11.7 °F 17.6 °F 86% 30.34 in 4.0 mi SSE 8.1 mph - N/A   Clear
4:38 AM 21.2 °F 12.6 °F 19.4 °F 93% 30.34 in 5.0 mi SSE 6.9 mph - N/A   Clear
4:58 AM 21.4 °F 11.9 °F 17.1 °F 83% 30.42 in 5.0 mi South 8.1 mph - N/A   Haze
5:08 AM 19.4 °F 7.2 °F 15.8 °F 86% 30.32 in 4.0 mi SSE 11.5 mph - N/A   Haze
5:43 AM 19.4 °F 9.5 °F 15.8 °F 86% 30.29 in 5.0 mi SSE 8.1 mph - N/A   Clear
5:58 AM 21.4 °F 11.9 °F 17.6 °F 85% 30.37 in 5.0 mi SSE 8.1 mph - N/A   Clear
6:34 AM 28.4 °F 16.6 °F 21.2 °F 74% 30.28 in 10.0 mi East 16.1 mph 21.9 mph N/A   Clear
6:58 AM 21.4 °F 10.4 °F 17.1 °F 83% 30.36 in 5.0 mi SSE 10.4 mph - N/A   Haze
7:31 AM 24.8 °F 13.4 °F 19.4 °F 80% 30.27 in 8.0 mi East 12.7 mph 18.4 mph N/A   Clear
7:58 AM 26.1 °F 15.6 °F 20.5 °F 79% 30.36 in 10.0 mi East 11.5 mph - N/A   Clear
8:58 AM 26.6 °F 16.2 °F 20.1 °F 77% 30.35 in 10.0 mi ESE 11.5 mph - N/A   Clear
9:58 AM 28.2 °F 18.9 °F 20.7 °F 73% 30.32 in 9.0 mi SSE 10.4 mph - N/A   Clear
10:58 AM 28.9 °F 21.9 °F 21.0 °F 72% 30.29 in 8.0 mi ESE 6.9 mph - N/A   Clear
11:58 AM 32.4 °F 26.9 °F 22.8 °F 68% 30.21 in 9.0 mi South 5.8 mph - N/A   Clear
12:58 PM 34.5 °F 29.4 °F 24.1 °F 66% 30.14 in 10.0 mi Variable 5.8 mph - N/A   Clear
1:58 PM 38.5 °F 35.0 °F 25.3 °F 59% 30.10 in 10.0 mi NNE 4.6 mph - N/A   Clear
2:58 PM 36.1 °F 33.5 °F 24.3 °F 62% 30.08 in 10.0 mi SE 3.5 mph - N/A   Clear
3:58 PM 31.8 °F 23.3 °F 23.5 °F 71% 30.11 in 5.0 mi NNW 10.4 mph - N/A   Haze
4:13 PM 28.4 °F 20.4 °F 23.0 °F 80% 30.04 in 4.0 mi NNW 8.1 mph - N/A   Haze
4:58 PM 28.6 °F 23.5 °F 21.9 °F 76% 30.09 in 5.0 mi North 4.6 mph - N/A   Haze
5:58 PM 28.2 °F - 21.7 °F 77% 30.07 in 6.0 mi ESE 2.3 mph - N/A   Haze
6:58 PM 30.0 °F 22.4 °F 22.1 °F 72% 30.01 in 10.0 mi ESE 8.1 mph - N/A   Clear
7:58 PM 32.0 °F 26.4 °F 23.2 °F 70% 29.95 in 10.0 mi ESE 5.8 mph - N/A   Clear
8:58 PM 31.1 °F 24.5 °F 23.2 °F 72% 29.93 in 10.0 mi ESE 6.9 mph - N/A   Clear
9:58 PM 32.9 °F 26.7 °F 23.2 °F 67% 29.90 in 10.0 mi SE 6.9 mph - N/A   Clear
10:58 PM 31.8 °F 24.6 °F 23.0 °F 70% 29.86 in 10.0 mi SSE 8.1 mph - N/A   Clear
11:58 PM 32.5 °F 27.1 °F 22.1 °F 65% 29.83 in 10.0 mi SE 5.8 mph - N/A   Clear